NETSAT-4

Last updated on Wed Jul 09 2025 00:03:43 GMT+0000 (Coordinated Universal Time)

1 46504U 20068U 25189.50226877 .00008340 00000+0 28106-3 0 9991 2 46504 97.8456 168.9778 0009187 100.5526 259.6749 15.30981423262974
UTC large
Height (km)
Speed (km/s)
/
Latitude / Longitude
Inclination (degrees)
Orbital Period (minutes)
Azimuth
Elevation
Range (km)
Doppler Factor

Next 0 passes for location: London (51.5072 / 0.1276)

Sorry there are no passes over London.